User: anonymous   Login
Location: Arrodets-la-Barthe
(43.0306°N, 0.2829°E)
Time: 17:40:17
(UTC+00:00)
Language:

Feng Yun 1-1 Rocket - Orbit

View from above orbital plane
View from above orbital plane
View from above satellite
View from above satellite

Ground track
Ground track

The orbit data is extracted from the following two-line orbital elements,

1 19468U 88080B   22024.09354980  .00000173  00000-0  13606-3 0  9990
2 19468  99.1779  55.1217 0072207  63.5437 359.6384 14.03532841709228
Epoch (UTC): 24 January 2022 02:14:42
Eccentricity: 0.0072207
inclination: 99.1779°
perigee height: 829 km
apogee height: 934 km
right ascension of ascending node: 55.1217°
argument of perigee: 63.5437°
revolutions per day: 14.03532841
mean anomaly at epoch: 359.6384°
orbit number at epoch: 70922

The dashed part of the orbit path shows where the satellite is in the earth's shadow,  

DLR